www.pogodaiklimat.ru

Погода и климат >> Архив погоды >> Россия >> Красноярский край >> Игарка


АРХИВ ПОГОДЫ в Игарке

Время (UTC), дата Ветер
(напр.,м/с)
 
Видим.   Явления Облачность Т
(С)
Тd
(С)
f
(%)
Тe
(С)
Тes
(С)
Комфортность P
(гПа)
Po
(гПа)
Тmin
(С)
Tmax
(С)
R
(мм)
R24
(мм)
S
(см)
21 19.03 Ю 2 2000 м снег 10/0
[As op]
-8.9 -9.6 95 -13 -13 1023.0 1019.3
00 20.03 Ю 3 4000 м слаб. снег 10/0 1000 м
[As op]
-8.6 -9.3 95 -15 -15 1022.2 1018.5 -10.8 3 83
03 20.03 Ю 1 10 км слаб. снег 9/8 600 м
[Sc As op]
-7.6 -9.0 90 -10 -10 1022.0 1018.4
06 20.03 Ю 3 20 км в посл. час снег 9/6 600 м
[Sc Ac trans Ci fib]
-5.8 -7.3 89 -11 -11 1021.8 1018.2
09 20.03 Ю 4 20 км 9/6 600 м
[Sc As op]
-4.2 -5.8 89 -11 -10 1021.0 1017.4
12 20.03 Ю 3 10 км слаб. снег 9/8 600 м
[Sc As op]
-4.6 -5.4 94 -10 -10 1019.8 1016.2 -4.0 0.4
15 20.03 Ю 4 10 км слаб. снег 9/8 300 м
[Frnb As op]
-4.2 -4.7 96 -11 -11 1017.7 1014.1
18 20.03
{11}
2000 м снег {метель} н/о -4.1 -4.6 96 -12 -12 1014.4 1010.8
21 20.03
{13}
2000 м снег {метель} н/о -4.0 -4.5 96 -12 -12 1010.4 1006.8
00 21.03 Ю 6
{14}
10 км слаб. снег {метель} 10/10 300 м
[Frnb Ns]
-3.2 -3.9 95 -11 -11 1007.4 1003.8 -4.7 4 81
03 21.03 Ю 6
{10}
4000 м слаб. снег {метель} 10/10 300 м
[Sc As op]
-2.3 -3.8 89 -10 -10 1005.3 1001.8
06 21.03
{10}
4000 м слаб. снег {метель} н/о -2.9 -3.6 95 -9 -9 1004.5 1001.0
09 21.03 4000 м слаб. снег н/о -3.0 -3.7 95 -8 -8 1004.5 1000.9
12 21.03 ЮЗ 2 4000 м слаб. ливневой снег 9/8 300 м
[Cb cap Ac cuf]
-3.1 -3.8 95 -7 -7 1004.5 1000.9 -2.2 5
15 21.03 ЮЗ 2 10 км слаб. ливневой снег 9/6 600 м
[Cb cap Ac cuf]
-3.5 -4.3 94 -8 -8 1004.9 1001.3
18 21.03 З 3 10 км слаб. ливневой снег 10/10 300 м
[Cb cap]
-2.9 -3.6 95 -8 -8 1005.6 1002.1
21 21.03 ЮЗ 1 10 км в посл. час ливневой снег 9/9 300 м
[Cb cap]
-2.8 -3.8 93 -5 -5 1005.4 1001.9
00 22.03 ЮЗ 2 10 км слаб. ливневой снег 9/8 300 м
[Cb cap Ac cuf]
-3.0 -4.0 93 -7 -7 1005.4 1001.8 -3.7 3 88
03 22.03 ЮЗ 1 10 км слаб. ливневой снег 9/8 300 м
[Cb cap Ac cuf]
-2.3 -3.2 94 -5 -4 1005.6 1002.1
06 22.03 З 4 20 км {ливн. осадки} 9/8 600 м
[Cb cap Ac cuf]
-1.7 -3.4 88 -8 -7 1006.2 1002.7
09 22.03 СЗ 3 20 км в посл. час ливневой снег 9/9 600 м
[Cb cap]
-2.2 -4.1 87 -7 -7 1007.8 1004.3
12 22.03 СЗ 3 20 км {ливн. осадки} 4/1 600 м
[Sc Ac trans Ci fib]
-5.2 -8.1 80 -11 -11 1009.7 1006.1 -1.3 0.5
15 22.03 СЗ 2 20 км 4/0
[Ac trans Ci fib]
-11.8 -13.8 85 -16 -16 1011.4 1007.7
18 22.03 штиль 0 10 км 3/0
[Ci fib]
-16.1 -18.0 85 -16 -16 1013.0 1009.2
21 22.03 штиль 0 10 км 4/0
[Ci fib]
-22.5 -24.3 85 -23 -23 1014.2 1010.4
00 23.03 З 1 10 км 1/0
[Ci fib]
-25.8 -27.6 85 -29 -29 1015.4 1011.5 -25.9 88
03 23.03 штиль 0 10 км слаб. снег 9/0
[Cs]
-19.6 -21.5 85 -20 -18 1016.6 1012.8 -27.1
06 23.03 штиль 0 20 км {снег} 6/0
[Ac trans Ci fib]
-13.7 -18.0 70 -14 -10 1016.9 1013.1
09 23.03 В 1 20 км 9/6 1000 м
[Sc Ac trans Cs]
-10.6 -14.2 75 -13 -12 1016.9 1013.2
12 23.03 штиль 0 10 км слаб. ливневой снег 9/8 300 м
[Cb cap Ac cuf]
-8.8 -11.7 79 -9 -9 1016.9 1013.2 -8.7 0.3
15 23.03 штиль 0 10 км слаб. ливневой снег 9/9 300 м
[Cb cap]
-9.9 -11.6 87 -10 -10 1016.3 1012.6
18 23.03 В 1 10 км {ливн. осадки} 9/8 300 м
[Cb cap Ac cuf]
-11.1 -12.4 90 -13 -13 1015.8 1012.1
21 23.03 В 1 10 км слаб. снег 9/8 600 м
[Sc diur, vesp Ac As]
-13.2 -14.5 90 -16 -16 1015.4 1011.6
00 24.03 ЮВ 1 10 км слаб. снег 9/8 600 м
[Sc Ac As]
-11.7 -12.3 95 -14 -14 1014.6 1010.9 -13.3 0.5 88
03 24.03 Ю 2 10 км слаб. снег 9/6 1000 м
[Sc Ac As]
-8.1 -9.1 92 -13 -12 1015.0 1011.3
06 24.03 Ю 3 10 км слаб. снег 9/6 1000 м
[Sc As op]
-5.0 -6.3 91 -11 -10 1015.2 1011.6
09 24.03 Ю 2 10 км слаб. снег 9/8 600 м
[Sc As op]
-3.0 -4.7 88 -7 -7 1015.6 1012.0
12 24.03 З 1 10 км слаб. снег 9/8 600 м
[Sc As op]
-3.2 -4.9 88 -6 -6 1016.6 1013.0 -2.2 0.5
15 24.03 З 1 10 км {снег} 9/8 600 м
[Sc As op]
-7.3 -7.8 96 -10 -10 1017.2 1013.6
18 24.03 В 1 10 км слаб. снег 9/8 600 м
[Sc As op]
-8.1 -8.7 95 -11 -11 1017.5 1013.8
21 24.03 ЮВ 2 10 км {снег} 9/9 300 м
[Frnb]
-6.7 -7.2 96 -11 -11 1017.6 1014.0
00 25.03 ЮВ 2 10 км слаб. ливневой снег 9/9 300 м
[Cb cap]
-4.8 -5.1 98 -9 -9 1017.3 1013.7 -8.6 0.2 88
03 25.03 Ю 4 20 км {ливн. осадки} 9/8 300 м
[Cb cap Ac cuf]
-3.1 -4.5 90 -9 -9 1017.8 1014.2
06 25.03 Ю 5 20 км {ливн. осадки} 9/4 300 м
[Sc diur, vesp Ac cuf Ci ing]
-2.2 -5.4 79 -9 -8 1018.2 1014.7
09 25.03 ЮЗ 5
{10}
20 км 9/6 600 м
[Cb cap Ac cuf]
-0.6 -4.7 74 -7 -6 1018.7 1015.1
12 25.03 ЮЗ 5
{10}
20 км 9/6 1000 м
[Sc diur, vesp Ac cuf]
-0.7 -4.8 74 -7 -7 1019.6 1016.0 -0.2 0.0
15 25.03 Ю 4 10 км 9/3 1000 м
[Sc Ac trans]
-2.4 -5.6 79 -8 -8 1020.6 1017.0
18 25.03 В 1 10 км 9/4 600 м
[Sc Ac trans]
-4.4 -7.1 81 -7 -7 1020.6 1017.0
21 25.03 Ю 4 10 км 9/6 600 м
[Sc Ac trans]
-3.3 -5.7 83 -9 -9 1020.9 1017.3
00 26.03 Ю 3 20 км 9/6 600 м
[Cb cap Ac cuf]
-4.5 -6.4 87 -10 -10 1021.7 1018.1 -5.3 88
03 26.03 Ю 3 20 км {ливн. осадки} 8/3 600 м
[Cb cap Ac cuf Ci ing]
-3.3 -5.4 85 -9 -8 1022.4 1018.8
06 26.03 Ю 3 20 км {ливн. осадки} 8/3 600 м
[Cb cap Ac cuf Ci ing]
-0.1 -4.9 70 -4 -3 1022.6 1019.0
09 26.03 Ю 5 20 км 6/0
[Ac trans Ci fib]
+1.3 -3.9 68 -4 -3 1022.5 1018.9
12 26.03 Ю 5 20 км 6/0
[Ci fib]
-0.1 -4.9 70 -6 -6 1022.0 1018.4 +1.5 0.0
15 26.03 Ю 4 10 км 4/0
[Ci fib]
-2.9 -6.7 75 -9 -9 1021.6 1018.0
18 26.03 Ю 4 10 км 4/0
[Ci fib]
-2.4 -6.0 76 -8 -8 1020.6 1017.0

 

Местоположение метеостанции Игарка (Красноярский край, Россия): широта 67.47 долгота 86.57 высота над уровнем моря 28 м.

В архиве по умолчанию представлена погода в Игарке за последнюю неделю. Архивные данные за месяц целиком и за предыдущие месяцы, начиная с января 2011 года, Вы можете получить, выбрав интересующий диапазон дат из раскрывающегося списка и нажав кнопку "Ввод!".


*Определитесь, кто Вы:
робот инопланетянин человек

Внимание! Время в таблицах - всемирное. Для получения местного времени необходимо прибавить поправку, которая равна 7 ч.

Смотрите также архив погоды в соседних городах и на ближайших метеорологических станциях:

Погода в Горбиачине (Красноярский край, Россия) (54 км)
Погода в Снежногорске (Красноярский край, Россия) (86 км)
Погода в Светлогорске (Красноярский край, Россия) (98 км)
Погода в Курейке (Красноярский край, Россия) (115 км)
Погода в Потапово (Красноярский край, Россия) (134 км)
Погода в Советской Речке (Красноярский край, Россия) (140 км)
Погода в Туруханске (Красноярский край, Россия) (197 км)
Погода в Норильске (Красноярский край, Россия) (219 км)
Погода в Большом Пороге (Эвенкия, Россия) (256 км)
Погода в Красноселькупске (Ямало-Ненецкий АО, Россия) (268 км)

Пояснения к столбцам:

Ветер - указаны скорость ветра в м/с - средняя за 10 мин, порывы в срок и между сроками (в фигурных скобках) и направление, откуда дует ветер: С - северный, СВ - северо-восточный, В - восточный, ЮВ - юго-восточный, Ю - южный, ЮЗ - юго-западный, З - западный, СЗ - северо-западный.
Видимость - горизонтальная дальность видимости в метрах или километрах. При видимости от 1 до 10 км при отсутствии осадков обычно наблюдается дымка, при ухудшении видимости до 1 км и менее - туман. В сухую погоду видимость может ухудшаться дымом, пылью или мглою.
Явления - указаны атмосферные явления, наблюдавшиеся в срок или в последний час перед сроком; фигурными скобками обозначены явления, наблюдавшиеся между сроками (за 1-3 часа до срока); квадратными скобками обозначены град или гололедные отложения с указанием их диаметра в мм.
Облачность - указаны через наклонную черту общая и нижняя облачность в баллах и высота нижней границы облаков в метрах; квадратными скобками обозначены формы облаков: Ci - перистые, Cs - перисто-слоистые, Cc - перисто-кучевые, Ac - высококучевые, As - высокослоистые, Sc - слоисто-кучевые, Ns - слоисто-дождевые, Cu - кучевые, Cb - кучево-дождевые. Подробнее классификацию облаков см. в Атласе облаков (PDF).
T - Температура воздуха - температура, измеренная на высоте 2 м над землей.
Td - Температура точки росы - температура, при понижении до которой содержащийся в воздухе водяной пар достигнет насыщения.
f - Относительная влажность воздуха - влажноcть воздуха, измеренная на высоте 2 м над землей.
Te - Эффективная температура - температура, которую ощущает одетый по сезону человек в тени. Характеристика душности погоды. При расчете учитывается влияние влажности воздуха и скорости ветра на теплоощущения человека.
Tes - Эффективная температура на солнце - температура, которую ощущает человек, с поправкой на солнечный нагрев. Характеристика знойности погоды. Зависит от высоты солнца над горизонтом, облачности и скорости ветра. Ночью, в пасмурную погоду, а также при ветре 12 м/с и более поправка равна нулю.
P - Атмосферное давление - приведенное к уровню моря атмосферное давление.
Po - Атмосферное давление - измеренное на уровне метеостанции атмосферное давление.
Tmin - Минимальная температура - минимум температуры воздуха на высоте 2 м над землей.
Tmax - Максимальная температура - максимум температуры воздуха на высоте 2 м над землей.
R - Количество осадков - Количество выпавших осадков за период времени, мм. При наведении курсора мыши на число - период времени, за который выпало указанное количество осадков.
R24 - Количество осадков - Количество выпавших осадков за 24 часа, мм.
S - Снежный покров - Высота снежного покрова, см. При наведении курсора мыши на число - состояние снежного покрова и степень покрытия местности в баллах.